TimeCDT,TemperatureF,Dew PointF,Humidity,Sea Level PressureIn,VisibilityMPH,Wind Direction,Wind SpeedMPH,Gust SpeedMPH,PrecipitationIn,Events,Conditions,WindDirDegrees,DateUTC
12:20 AM,66.2,66.2,100,30.08,10.0,East,5.8,-,N/A,,Mostly Cloudy,80,2013-07-05 05:20:00
12:56 AM,66.9,66.9,100,30.07,10.0,East,4.6,-,N/A,,Mostly Cloudy,80,2013-07-05 05:56:00
1:17 AM,66.2,66.2,100,30.08,10.0,ENE,4.6,-,N/A,,Overcast,70,2013-07-05 06:17:00
1:28 AM,66.2,66.2,100,30.08,10.0,Calm,Calm,-,N/A,,Mostly Cloudy,0,2013-07-05 06:28:00
1:56 AM,65.8,65.8,100,30.06,10.0,Calm,Calm,-,N/A,,Partly Cloudy,0,2013-07-05 06:56:00
2:56 AM,64.9,64.9,100,30.06,10.0,Calm,Calm,-,N/A,,Clear,0,2013-07-05 07:56:00
3:56 AM,64.9,64.9,100,30.06,10.0,Calm,Calm,-,N/A,,Mostly Cloudy,0,2013-07-05 08:56:00
4:11 AM,64.4,64.4,100,30.07,10.0,Calm,Calm,-,N/A,,Mostly Cloudy,0,2013-07-05 09:11:00
4:56 AM,64.9,64.9,100,30.06,10.0,Calm,Calm,-,N/A,,Overcast,0,2013-07-05 09:56:00
5:56 AM,65.8,65.8,100,30.08,7.0,Calm,Calm,-,N/A,,Overcast,0,2013-07-05 10:56:00
6:56 AM,66.9,66.9,100,30.09,7.0,Calm,Calm,-,N/A,,Overcast,0,2013-07-05 11:56:00
7:32 AM,66.2,66.2,100,30.10,7.0,Calm,Calm,-,N/A,,Overcast,0,2013-07-05 12:32:00
7:56 AM,68.0,68.0,100,30.10,7.0,Calm,Calm,-,N/A,,Overcast,0,2013-07-05 12:56:00
8:56 AM,68.9,68.9,100,30.12,7.0,Calm,Calm,-,N/A,,Overcast,0,2013-07-05 13:56:00
9:56 AM,70.9,68.9,93,30.12,7.0,Calm,Calm,-,N/A,,Overcast,0,2013-07-05 14:56:00
10:56 AM,70.9,70.0,97,30.12,4.0,Calm,Calm,-,N/A,,Overcast,0,2013-07-05 15:56:00
11:24 AM,73.4,69.8,88,30.12,7.0,Calm,Calm,-,N/A,,Overcast,0,2013-07-05 16:24:00
11:56 AM,73.9,68.9,84,30.11,7.0,Calm,Calm,-,N/A,,Overcast,0,2013-07-05 16:56:00
12:56 PM,74.8,68.9,82,30.11,7.0,Variable,4.6,-,N/A,,Overcast,0,2013-07-05 17:56:00
1:56 PM,77.9,70.0,76,30.09,7.0,Calm,Calm,-,N/A,,Overcast,0,2013-07-05 18:56:00
2:56 PM,81.0,68.9,67,30.08,10.0,South,4.6,-,N/A,,Mostly Cloudy,180,2013-07-05 19:56:00
3:13 PM,80.6,69.8,70,30.09,10.0,Calm,Calm,-,N/A,,Overcast,0,2013-07-05 20:13:00
3:56 PM,79.9,68.9,69,30.07,10.0,Calm,Calm,-,N/A,,Mostly Cloudy,0,2013-07-05 20:56:00
4:56 PM,79.9,70.0,72,30.07,10.0,Calm,Calm,-,N/A,,Mostly Cloudy,0,2013-07-05 21:56:00
5:56 PM,79.0,70.9,76,30.05,10.0,NE,4.6,-,0.00,,Scattered Clouds,50,2013-07-05 22:56:00
6:56 PM,74.8,68.0,79,30.06,10.0,East,6.9,-,0.00,,Mostly Cloudy,100,2013-07-05 23:56:00
7:56 PM,72.9,68.9,87,30.05,10.0,East,6.9,-,0.00,,Clear,100,2013-07-06 00:56:00
8:56 PM,72.0,72.0,100,30.06,10.0,ESE,8.1,-,N/A,,Partly Cloudy,110,2013-07-06 01:56:00
9:56 PM,72.9,70.9,93,30.09,10.0,SE,10.4,-,N/A,,Mostly Cloudy,130,2013-07-06 02:56:00
10:35 PM,71.6,71.6,100,30.10,10.0,SE,12.7,-,0.00,Rain,Light Rain,130,2013-07-06 03:35:00
10:56 PM,70.9,70.9,100,30.10,10.0,SE,8.1,-,0.00,,Scattered Clouds,130,2013-07-06 03:56:00
11:24 PM,71.6,71.6,100,30.10,10.0,ESE,6.9,-,N/A,,Partly Cloudy,110,2013-07-06 04:24:00
11:56 PM,68.9,68.9,100,30.10,5.0,SE,13.8,-,0.01,Rain,Rain,130,2013-07-06 04:56:00